Location: Coll
(42.4728°N, 0.7714°E)
Time: 05:57:13
(UTC+00:00)

ARGOS Delta rocket - Pass Details

Date: 23 October 2020
Orbit: 636 x 837 km, 96.5° (Epoch: 23 November)

Event Time Altitude Azimuth Distance (km) Brightness Sun altitude
Rises 05:32:20 0° 4° (N) 3,300 7.3 -9.4°
Reaches altitude 10° 05:34:42 10° 359° (N) 2,390 6.5 -9.0°
Maximum altitude 05:39:48 48° 287° (WNW) 1,073 4.4 -8.0°
Drops below altitude 10° 05:45:00 10° 214° (SW) 2,439 6.4 -7.1°
Sets 05:47:27 0° 209° (SSW) 3,373 7.1 -6.7°
